COSMOS 2489

导读

COSMOS 2489是俄罗斯(原独联体CIS)宇宙号系列卫星,于2013年12月25日发射。作为世界上最大卫星家族的成员,宇宙号系列自1962年起发射,编号超2450颗,多为军用卫星,涵盖科学研究、导航、军事侦察等多种用途,该卫星延续了系列多任务设计,服务于太空探测与国防相关航天任务。

Basic Information
目录编号:
39484
目录名称:
COSMOS 2489
国际标识:
2013-076B
轨道中心:
EARTH
卫星名称:
COSMOS 2489
卫星全名:
--
卫星状态:
在轨 (已飞行4561 天)
发射日期:
2013-12-25 UTC
国别 :
俄罗斯(独联体) (CIS)
星等 :
--
Orbit Information
数据来源 国际轨道数据 AOE轨道数据
星历时间 2026-06-20T19:23:09+0800
18小时前
查看轨道信息
2026-06-18T23:00:00+0800
2天前
查看轨道信息
半长轴 7872.557km 7872.559km
偏心率 0.0022711 0.0022676
轨道倾角 82.487° 82.487°
近地点辐角 88.529° 92.476°
升交点赤经 168.027° 169.179°
平近点角 271.839° 276.963°
近地点 1476.54km 1476.57km
远地点 1512.3km 1512.274km
周期 115.860分钟 115.860分钟
每日圈数 12.428796 12.428793
Detailed Information
使用方式:
暂无
2D Orbit Map
3D Orbit Map
Orbit Altitude Analysis Chart
Orbit Inclination Analysis Chart
Orbit Comprehensive Analysis Chart
View Comprehensive Chart